Location: Sternwarte_Laufen
(47.9344°N, 12.9346°E)
Time: 16:41:22
(UTC+02:00)

ISS - Pass Details

Date: 14 May 2026
Orbit: 414 x 424 km, 51.6° (Epoch: 21 May)

Event Time Altitude Azimuth Distance (km) Brightness Sun altitude
Rises 00:57:17 0° 293° (WNW) 2,356 0.4 -23.5°
Reaches altitude 10° 00:59:23 10° 292° (WNW) 1,493 -0.7 -23.5°
Enters shadow 01:00:21 18° 292° (WNW) 1,103 -1.4 -23.5°
